Tehachapi, CA

3:20 AM PDT on March 30, 2017 (GMT -0700)
Tehachapi Municipal

Weather History for KTSP - February, 2012

Change the Weather History Date:

Monday, February 6, 2012

  Actual Average Record
Temperature  
Mean Temperature 42 °F -  
Max Temperature 50 °F 51 °F 68 °F (2015)
Min Temperature 35 °F 31 °F 24 °F (2013)
Degree Days  
Heating Degree Days 22    
Moisture  
Dew Point 14 °F    
Average Humidity 30    
Maximum Humidity 41    
Minimum Humidity 22    
Precipitation  
Precipitation 0.00 in - - ()
Sea Level Pressure  
Sea Level Pressure 30.07 in    
Wind  
Wind Speed 15 mph (ESE)    
Max Wind Speed 23 mph    
Max Gust Speed 30 mph    
Visibility 10 miles    
Events      
Averages and records for this station are not official NWS values.
T = Trace of Precipitation, MM = Missing Value Source: NWS Daily Summary

Daily Weather History Graph

Daily Weather History Graph

Search for Another Location

Airport or City:

Trip Planner

Search our weather history database for the weather conditions in past years. The results will help you decide how hot, cold, wet, or windy it might be!

Date:

Astronomy

Feb. 06, 2012 Rise Set
Actual Time 6:49 AM PST 5:27 PM PST
Civil Twilight 6:22 AM PST 5:53 PM PST
Nautical Twilight 5:52 AM PST 6:23 PM PST
Astronomical Twilight 5:22 AM PST 6:53 PM PST
Moon 4:36 PM PST (2/6) 5:42 AM PST (2/6)
Length of Visible Light 11h 30m
Length of Day
10h 37m
Waxing Gibbous, 99% of the Moon is Illuminated
Feb 6
Waxing Gibbous
Feb 7
Full
Feb 14
Last Quarter
Feb 21
New
Feb 29
First Quarter

Hourly Weather History & Observations

Time (PST) Temp. Windchill Dew Point Humidity Pressure Visibility Wind Dir Wind Speed Gust Speed Precip Events Conditions
12:15 AM 39.2 °F 31.6 °F 12.2 °F 33% 30.10 in 10.0 mi East 12.7 mph - N/A   Clear
12:35 AM 39.2 °F 31.6 °F 12.2 °F 33% 30.10 in 10.0 mi East 12.7 mph 17.3 mph N/A   Clear
12:55 AM 39.2 °F 31.6 °F 14.0 °F 36% 30.10 in 10.0 mi East 12.7 mph 18.4 mph N/A   Clear
1:15 AM 37.4 °F 30.3 °F 14.0 °F 38% 30.10 in 10.0 mi ESE 10.4 mph - N/A   Clear
1:35 AM 35.6 °F 27.5 °F 14.0 °F 41% 30.10 in 10.0 mi East 11.5 mph - N/A   Clear
1:55 AM 39.2 °F 31.2 °F 14.0 °F 36% 30.09 in 10.0 mi ESE 13.8 mph - N/A   Clear
2:15 AM 39.2 °F 31.6 °F 14.0 °F 36% 30.09 in 10.0 mi ESE 12.7 mph 19.6 mph N/A   Clear
2:35 AM 35.6 °F 27.5 °F 14.0 °F 41% 30.08 in 10.0 mi East 11.5 mph 17.3 mph N/A   Clear
2:55 AM 39.2 °F 32.0 °F 14.0 °F 36% 30.08 in 10.0 mi ESE 11.5 mph - N/A   Clear
3:15 AM 37.4 °F 30.3 °F 14.0 °F 38% 30.07 in 10.0 mi East 10.4 mph 16.1 mph N/A   Clear
3:35 AM 37.4 °F 29.3 °F 14.0 °F 38% 30.07 in 10.0 mi ESE 12.7 mph - N/A   Clear
3:55 AM 37.4 °F 29.3 °F 14.0 °F 38% 30.06 in 10.0 mi ESE 12.7 mph - N/A   Clear
4:15 AM 37.4 °F 29.3 °F 14.0 °F 38% 30.07 in 10.0 mi ESE 12.7 mph - N/A   Clear
4:35 AM 37.4 °F 30.3 °F 14.0 °F 38% 30.07 in 10.0 mi ESE 10.4 mph - N/A   Clear
4:55 AM 37.4 °F 29.8 °F 14.0 °F 38% 30.06 in 10.0 mi ESE 11.5 mph - N/A   Clear
5:15 AM 37.4 °F 29.3 °F 14.0 °F 38% 30.07 in 10.0 mi ESE 12.7 mph - N/A   Clear
5:35 AM 39.2 °F 31.2 °F 14.0 °F 36% 30.06 in 10.0 mi ESE 13.8 mph - N/A   Clear
5:55 AM 39.2 °F 31.2 °F 14.0 °F 36% 30.07 in 10.0 mi ESE 13.8 mph - N/A   Clear
6:15 AM 39.2 °F 31.2 °F 14.0 °F 36% 30.07 in 10.0 mi ESE 13.8 mph - N/A   Clear
6:35 AM 39.2 °F 31.6 °F 14.0 °F 36% 30.08 in 10.0 mi ESE 12.7 mph - N/A   Clear
6:55 AM 41.0 °F 33.1 °F 14.0 °F 33% 30.08 in 10.0 mi ESE 15.0 mph - N/A   Clear
7:15 AM 41.0 °F 33.5 °F 14.0 °F 33% 30.09 in 10.0 mi ESE 13.8 mph - N/A   Clear
7:35 AM 41.0 °F 33.5 °F 14.0 °F 33% 30.09 in 10.0 mi ESE 13.8 mph - N/A   Clear
7:55 AM 41.0 °F 33.9 °F 15.8 °F 36% 30.09 in 10.0 mi ESE 12.7 mph - N/A   Clear
8:15 AM 44.6 °F 37.4 °F 15.8 °F 31% 30.09 in 10.0 mi ESE 16.1 mph - N/A   Clear
8:35 AM 46.4 °F 39.2 °F 14.0 °F 27% 30.10 in 10.0 mi SE 18.4 mph 23.0 mph N/A   Clear
8:55 AM 48.2 °F - 14.0 °F 25% 30.10 in 10.0 mi SE 16.1 mph - N/A   Clear
9:35 AM 48.2 °F - 14.0 °F 25% 30.11 in 9.0 mi SE 23.0 mph 28.8 mph N/A   Clear
9:55 AM 50.0 °F - 14.0 °F 24% 30.11 in 10.0 mi ESE 18.4 mph 27.6 mph N/A   Clear
10:15 AM 50.0 °F - 14.0 °F 24% 30.10 in 10.0 mi ESE 18.4 mph 27.6 mph N/A   Clear
10:55 AM 50.0 °F - 14.0 °F 24% 30.12 in 10.0 mi SE 19.6 mph 24.2 mph N/A   Clear
11:15 AM 50.0 °F - 14.0 °F 24% 30.11 in 10.0 mi SE 23.0 mph 28.8 mph N/A   Clear
11:35 AM 50.0 °F - 14.0 °F 24% 30.10 in 9.0 mi ESE 21.9 mph 29.9 mph N/A   Clear
11:55 AM 50.0 °F - 14.0 °F 24% 30.08 in 10.0 mi ESE 21.9 mph 29.9 mph N/A   Clear
12:15 PM 50.0 °F - 14.0 °F 24% 30.07 in 10.0 mi SE 19.6 mph 27.6 mph N/A   Clear
12:35 PM 50.0 °F - 14.0 °F 24% 30.08 in 10.0 mi SE 23.0 mph 28.8 mph N/A   Clear
12:55 PM 50.0 °F - 12.2 °F 22% 30.06 in 10.0 mi SE 20.7 mph 27.6 mph N/A   Clear
1:15 PM 50.0 °F - 14.0 °F 24% 30.06 in 10.0 mi ESE 20.7 mph 27.6 mph N/A   Clear
1:35 PM 50.0 °F - 14.0 °F 24% 30.05 in 10.0 mi ESE 23.0 mph 28.8 mph N/A   Clear
1:55 PM 50.0 °F - 14.0 °F 24% 30.05 in 10.0 mi ESE 19.6 mph 28.8 mph N/A   Clear
2:15 PM 50.0 °F - 14.0 °F 24% 30.04 in 10.0 mi ESE 21.9 mph 28.8 mph N/A   Clear
2:35 PM 50.0 °F - 14.0 °F 24% 30.04 in 9.0 mi ESE 20.7 mph 27.6 mph N/A   Clear
2:55 PM 50.0 °F - 14.0 °F 24% 30.04 in 9.0 mi ESE 19.6 mph 28.8 mph N/A   Clear
3:15 PM 50.0 °F - 14.0 °F 24% 30.03 in 10.0 mi ESE 19.6 mph 26.5 mph N/A   Clear
3:35 PM 50.0 °F - 14.0 °F 24% 30.03 in 9.0 mi ESE 21.9 mph 27.6 mph N/A   Clear
3:55 PM 50.0 °F - 14.0 °F 24% 30.03 in 10.0 mi ESE 16.1 mph 26.5 mph N/A   Clear
4:15 PM 48.2 °F - 14.0 °F 25% 30.02 in 10.0 mi ESE 20.7 mph 26.5 mph N/A   Clear
4:35 PM 48.2 °F - 14.0 °F 25% 30.02 in 10.0 mi ESE 16.1 mph 24.2 mph N/A   Clear
4:55 PM 48.2 °F - 14.0 °F 25% 30.02 in 10.0 mi SE 13.8 mph 21.9 mph N/A   Clear
5:15 PM 48.2 °F - 14.0 °F 25% 30.02 in 10.0 mi SE 16.1 mph 21.9 mph N/A   Clear
5:35 PM 46.4 °F 39.0 °F 14.0 °F 27% 30.01 in 10.0 mi SE 19.6 mph 25.3 mph N/A   Clear
5:55 PM 46.4 °F 40.1 °F 14.0 °F 27% 30.01 in 10.0 mi ESE 15.0 mph 25.3 mph N/A   Clear
6:35 PM 46.4 °F 39.2 °F 14.0 °F 27% 30.01 in 10.0 mi SE 18.4 mph 24.2 mph N/A   Clear
6:55 PM 46.4 °F 39.5 °F 14.0 °F 27% 30.01 in 10.0 mi ESE 17.3 mph 25.3 mph N/A   Clear
7:15 PM 46.4 °F 40.4 °F 14.0 °F 27% 30.01 in 10.0 mi ESE 13.8 mph 23.0 mph N/A   Clear
7:35 PM 46.4 °F 40.4 °F 14.0 °F 27% 30.02 in 10.0 mi ESE 13.8 mph 19.6 mph N/A   Clear
7:55 PM 46.4 °F 39.2 °F 14.0 °F 27% 30.01 in 10.0 mi ESE 18.4 mph 21.9 mph N/A   Clear
8:15 PM 46.4 °F 40.4 °F 14.0 °F 27% 30.01 in 10.0 mi ESE 13.8 mph 20.7 mph N/A   Clear
8:35 PM 46.4 °F 40.1 °F 14.0 °F 27% 30.01 in 10.0 mi ESE 15.0 mph 21.9 mph N/A   Clear
8:55 PM 46.4 °F 39.8 °F 14.0 °F 27% 30.02 in 10.0 mi SE 16.1 mph 21.9 mph N/A   Clear
9:15 PM 46.4 °F 39.8 °F 14.0 °F 27% 30.02 in 10.0 mi SE 16.1 mph 21.9 mph N/A   Clear
9:35 PM 48.2 °F - 12.2 °F 24% 30.01 in 10.0 mi ESE 19.6 mph - N/A   Clear
9:55 PM 48.2 °F - 12.2 °F 24% 30.01 in 10.0 mi ESE 15.0 mph 20.7 mph N/A   Clear
10:15 PM 48.2 °F - 12.2 °F 24% 30.00 in 10.0 mi ESE 17.3 mph 24.2 mph N/A   Clear
10:35 PM 48.2 °F - 12.2 °F 24% 30.00 in 10.0 mi ESE 21.9 mph 31.1 mph N/A   Clear
10:55 PM 48.2 °F - 12.2 °F 24% 30.00 in 10.0 mi ESE 23.0 mph 28.8 mph N/A   Clear
11:15 PM 48.2 °F - 12.2 °F 24% 29.99 in 10.0 mi ESE 24.2 mph 33.4 mph N/A   Clear
11:35 PM 46.4 °F 38.7 °F 12.2 °F 25% 30.00 in 10.0 mi ESE 20.7 mph 27.6 mph N/A   Clear
11:55 PM 48.2 °F - 12.2 °F 24% 29.99 in 10.0 mi ESE 19.6 mph 29.9 mph N/A   Clear